sat.trackr.live / text

‹ back to catalog

LEMUR-2-DELOITTE-2

NORAD 68491 · 2026-067CD

PAYLOAD ACTIVE UNKNOWN

§ Identity

Operator
Country
US
Launch date
2026-03-30
Launch site
AFWTR
Launch vehicle
Mass (kg)
RCS (m²)

External: N2YO · Heavens-Above · Gunter

§ Orbital elements

Epoch: 2026-09-20T02:42:27.923616Z

Period
96.50 min
Inclination
97.7660°
Eccentricity
0.0004708
Mean motion
14.92264659 rev/d
Perigee alt
587.6 km
Apogee alt
594.2 km
Semi-major
6,969.0 km
B*
3.2568e-4
RAAN
219.8263°
Arg perigee
91.2286°
Mean anomaly
268.9472°
Rev number
2,587

§ Raw data

LEMUR-2-DELOITTE-21 68491U 26067CD  26263.11282319  .00003268  00000+0  32568-3 0  99902 68491  97.7660 219.8263 0004708  91.2286 268.9472 14.92264659 25871

JSON: /api/v1/satellites/68491 · /tle

For live sub-satellite position, see the globe view (requires WebGL).

§ Visibility from observer

Set your observer location to see the next 7 days of passes ≥ 10°. The values pass through the URL so the page stays shareable.

No JS? Fill the form by hand. The geolocation button needs JavaScript.